Location: Forli
(44.2227°N, 12.0407°E)
Time: 19:31:31
(UTC+01:00)

ISS - Pass Details

Date: 14 February 2026
Orbit: 416 x 427 km, 51.6° (Epoch: 6 March)

Event Time Altitude Azimuth Distance (km) Brightness Sun altitude
Exits shadow 04:46:12 11° 139° (SE) 1,405 -0.7 -26.9°
Maximum altitude 04:46:37 12° 131° (SE) 1,394 -0.7 -26.8°
Drops below altitude 10° 04:47:50 10° 109° (ESE) 1,490 -0.2 -26.6°
Sets 04:51:04 0° 75° (ENE) 2,357 1.4 -26.0°
